Regional Weather Roundup
Issued by NWS

Home | Current Version | Previous Version | Graphics & Text | Print | Product List | Glossary On
Versions: 1 2 3 4 5 6 7 8 9 10 11 12 13 14 15 16 17 18 19 20 21 22 23 24 25 26 27 28 29 30 31 32 33 34 35 36 37 38 39 40 41 42 43 44 45 46 47 48 49 50
000
ASUS43 KLSX 252010
RWRMO

WEATHER SUMMARY FOR MISSOURI
NATIONAL WEATHER SERVICE SPRINGFIELD MO
300 PM CDT WED MAY 25 2016

NOTE: "FAIR" INDICATES FEW OR NO CLOUDS BELOW 12,000 FEET WITH NO
       SIGNIFICANT WEATHER AND/OR OBSTRUCTIONS TO VISIBILITY.
       CURRENT SKY AND/OR WEATHER CONDITIONS ARE NOT AVAILABLE FOR
       CHILLICOTHE AND FARMINGTON.

MOZ001>031-035>038-043-044-053-054-252100-
...NORTHERN AND WESTERN MISSOURI...

CITY           SKY/WX    TMP DP  RH WIND       PRES   REMARKS
KANSAS CTY INT MOSUNNY   80  65  59 S9G18     29.88F
KANSAS C DTWN  SUNNY     83  64  52 S9G18     29.87F
LEE`S SUMMIT   SUNNY     81  64  56 S13G22    29.90F
ST JOSEPH      SUNNY     81  65  58 S14G20    29.87F
CHILLICOTHE      N/A     82  63  52 VRB6      29.90R
KIRKSVILLE     MOSUNNY   77  65  66 S9        29.91F

$$
MOZ066>068-077>081-088>096-101>105-252100-
...SOUTHWEST MISSOURI...

CITY           SKY/WX    TMP DP  RH WIND       PRES   REMARKS
SPRINGFIELD    SUNNY     80  62  54 S18       29.97R
JOPLIN         PTSUNNY   82  67  60 S16G22    29.93S
BRANSON        MOSUNNY   75  66  73 E8        30.01S

$$
MOZ032>034-039>042-045>050-055>058-069>072-252100-
...CENTRAL MISSOURI...

CITY           SKY/WX    TMP DP  RH WIND       PRES   REMARKS
COLUMBIA       SUNNY     83  62  49 VRB6      29.94F
JEFFERSON CITY SUNNY     83  60  45 VRB5      29.93F
ROLLA          CLOUDY    76  63  64 S6        29.96S
SEDALIA        CLOUDY    83  60  45 S7        29.94F
WHITEMAN AFB   MOSUNNY   81  63  54 S8        29.91F
WARRENSBURG    SUNNY     79  63  57 S12       29.91F

$$
MOZ051-052-059>065-252100-
...EAST CENTRAL MISSOURI...

CITY           SKY/WX    TMP DP  RH WIND       PRES   REMARKS
ST LOUIS INTL  PTSUNNY   81  67  62 SE13      29.97F
SPIRIT OF STL  CLOUDY   N/A N/A N/A SW12      29.95F
ST CHARLES     CLOUDY    80  68  66 S15       29.95F

$$
MOZ072>076-082>087-097>100-106>115-252100-
...SOUTH CENTRAL AND SOUTHEAST MISSOURI...

CITY           SKY/WX    TMP DP  RH WIND       PRES   REMARKS
CAPE GIRARDEAU CLOUDY    78  68  71 S12       30.03F
FARMINGTON     CLOUDY    77  66  68 S13       30.00F
POPLAR BLUFF   CLOUDY    76  67  73 S12       29.97F
WEST PLAINS    CLOUDY    71  63  75 VRB3      30.01R

$$




USA.gov is the U.S. government's official web portal to all federal, state and local government web resources and services.